Home > Weather > Galway > Past weeks

Flag for Ireland Past Weather in Galway, Ireland — Yesterday and Last 2 Weeks

Now
57 °F

Partly cloudy.


Feels Like: 56 °F
Forecast: 56 / 62 °F
Wind: 7 mph from West

Location: Shannon Airport

Current Time: Jun 26, 2016 at 12:10:04 AM

Latest Report: Jun 25, 2016 at 11:30 PM


Visibility: N/A

Pressure: 30.18 "Hg

Humidity: 82%

Dew Point: 52 °F

Location of GalwayLocation

Past Weather in Galway — Graph

°F

Galway Temperature Yesterday

Maximum temperature yesterday: 63 °F (at 1:30 PM)
Minimum temperature yesterday: 55 °F (at 12:00 AM)
Average temperature yesterday: 58 °F

High & Low Weather Summary for the Past Weeks

 TemperatureHumidityPressure
High66 °F (Jun 11, 2:00 PM)94% (Jun 10, 11:30 PM)30.21 "Hg (Jun 10, 11:30 PM)
Low50 °F (Jun 17, 2:30 AM)45% (Jun 16, 4:00 PM)29.42 "Hg (Jun 14, 3:30 PM)
Average58 °F78%29.85 "Hg
* Reported Jun 10 11:00 PM — Jun 25 11:00 PM, Galway, Weather by CustomWeather, © 2016

Note: Actual official high and low records may vary slightly from our data, if they occured in-between our weather recording intervals... More about our weather records

Advertising

Galway Weather History for the Previous 24 Hours

Scroll right to see more
 ConditionsComfort  
Time TempWeatherWind HumidityBarometerVisibility
11:00 PM
Sat, Jun 25
57 °FPartly sunny.7 mph77%30.18 "HgN/A
10:30 PM57 °FPartly sunny.8 mph77%30.18 "HgN/A
10:00 PM57 °FPartly sunny.7 mph77%30.18 "HgN/A
9:30 PM57 °FPartly sunny.6 mph72%30.21 "HgN/A
9:00 PM57 °FPartly sunny.9 mph72%30.21 "HgN/A
8:30 PM59 °FPartly sunny.10 mph68%30.18 "HgN/A
8:00 PM59 °FPartly sunny.14 mph68%30.21 "HgN/A
7:30 PM59 °FPartly sunny.14 mph63%30.21 "HgN/A
7:00 PM59 °FPartly sunny.13 mph63%30.21 "HgN/A
6:30 PM59 °FBroken clouds.14 mph63%30.18 "HgN/A
6:00 PM59 °FBroken clouds.14 mph63%30.21 "HgN/A
5:30 PM61 °FPartly sunny.13 mph59%30.21 "HgN/A
5:00 PM61 °FPartly sunny.15 mph63%30.21 "HgN/A
4:30 PM63 °FPartly sunny.16 mph56%30.18 "HgN/A
4:00 PM63 °FPartly sunny.16 mph59%30.21 "HgN/A
3:30 PM63 °FPartly sunny.15 mph59%30.21 "HgN/A
3:00 PM61 °FPartly sunny.16 mph63%30.21 "HgN/A
2:30 PM61 °FBroken clouds.14 mph63%30.18 "HgN/A
2:00 PM61 °FBroken clouds.15 mph63%30.18 "HgN/A
1:30 PM63 °FBroken clouds.16 mph64%30.18 "HgN/A
1:00 PM61 °FPartly sunny.16 mph63%30.18 "HgN/A
12:30 PM59 °FPartly sunny.15 mph68%30.18 "HgN/A
12:00 PM59 °FPartly sunny.13 mph68%30.18 "HgN/A
11:30 AM59 °FBroken clouds.12 mph72%30.18 "HgN/A
11:00 AM59 °FPartly sunny.12 mph72%30.18 "HgN/A
10:30 AM57 °FPartly sunny.13 mph72%30.18 "HgN/A
10:00 AM57 °FPartly sunny.13 mph67%30.18 "HgN/A
9:30 AM57 °FOvercast.15 mph72%30.18 "HgN/A
9:00 AM57 °FOvercast.14 mph72%30.18 "HgN/A
8:30 AM55 °FOvercast.14 mph77%30.18 "HgN/A
8:00 AM55 °FPartly sunny.12 mph77%30.18 "HgN/A
7:30 AM55 °FPartly sunny.12 mph77%30.15 "HgN/A
7:00 AM55 °FPartly sunny.15 mph77%30.15 "HgN/A
6:30 AM55 °FPartly sunny.15 mph82%30.15 "HgN/A
6:00 AM55 °FPassing clouds.14 mph82%30.15 "HgN/A
5:30 AM55 °FPartly cloudy.10 mph82%30.15 "HgN/A
5:00 AM55 °FPassing clouds.12 mph82%30.15 "HgN/A
4:30 AM55 °FPassing clouds.12 mph82%30.15 "HgN/A
4:00 AM55 °FPartly cloudy.13 mph82%30.15 "HgN/A
3:30 AM55 °FPassing clouds.13 mph82%30.15 "HgN/A
3:00 AM55 °FPassing clouds.13 mph82%30.12 "HgN/A
2:30 AM55 °FPassing clouds.14 mph82%30.12 "HgN/A
2:00 AM55 °FPassing clouds.15 mph82%30.12 "HgN/A
1:30 AM55 °FPassing clouds.16 mph82%30.12 "HgN/A
1:00 AM57 °FPassing clouds.17 mph77%30.12 "HgN/A
12:30 AM57 °FPassing clouds.17 mph82%30.12 "HgN/A
12:00 AM55 °FPartly cloudy.14 mph88%30.12 "HgN/A
Weather by CustomWeather, © 2016

See weather overviewHow to use our weather pages